Regional Weather Roundup
Issued by NWS Sioux Falls, SD

Home | Current Version | Previous Version | Graphics & Text | Print | Product List | Glossary Off
Versions: 1 2 3 4 5 6 7 8 9 10 11 12 13 14 15 16 17 18 19 20 21 22 23 24 25 26 27 28 29 30 31 32 33 34 35 36 37 38 39 40 41 42 43 44 45 46 47 48 49 50

000
ASUS43 KFSD 220202
RWRFSD

WEATHER ROUNDUP FOR SE SOUTH DAKOTA/SW MINNESOTA/NW IOWA
NATIONAL WEATHER SERVICE SIOUX FALLS SD
800 PM CST SAT JAN 21 2017

NOTE: "FAIR" INDICATES FEW OR NO CLOUDS BELOW 12,000 FEET WITH NO
SIGNIFICANT WEATHER AND OR OBSTRUCTIONS TO VISIBILITY.


SDZ038>040-050-052>070-220300-
SOUTHEAST SOUTH DAKOTA

CITY           SKY/WX    TMP DP  RH WIND       PRES   REMARKS
BROOKINGS      CLOUDY    31  29  92 W8        29.50R WCI  23
CHAMBERLAIN    CLEAR     29  29 100 N5        29.54R WCI  24
HURON          CLOUDY    31  29  92 NW7       29.53R WCI  24
MADISON        CLOUDY    30  30 100 NW10        N/A  WCI  21
MITCHELL       CLOUDY    33  30  88 NW7       29.54R WCI  27
SIOUX FALLS    CLOUDY    32  29  88 NW9       29.51R WCI  24
WINNER         FAIR      32  29  88 CALM      29.54R
YANKTON        CLEAR     30  27  86 W5        29.54R WCI  25
$$

MNZ071-072-080-081-089-090-097-098-220300-
SOUTHWEST MINNESOTA

CITY           SKY/WX    TMP DP  RH WIND       PRES   REMARKS
FAIRMONT       CLOUDY    34  32  92 W8        29.50R WCI  27
JACKSON        CLOUDY    30  30 100 W9        29.50R FOG     WCI  22
LUVERNE        CLOUDY    30  28  93 NW7       29.51R FOG     WCI  23
MARSHALL       CLOUDY    34  33  96 NW8       29.50R WCI  27
MONTEVIDEO     FOG       34  34 100 CALM      29.52R VSB 1/2
PIPESTONE      CLOUDY    32  32 100 NW8       29.49R FOG     WCI  25
REDWOOD FALLS  FOG       35  34  96 CALM      29.49R VSB 1/4
TRACY          CLOUDY    35  34  97 W7        29.49R WCI  29
WINDOM         CLOUDY    32  32 100 W10       29.49R FOG     WCI  24
WORTHINGTON    CLOUDY    31  30  96 W12       29.50R WCI  22
$$

IAZ001>003-012>014-020>022-031-032-NEZ013-014-SDZ071-220300-
NORTHWEST IOWA

CITY           SKY/WX    TMP DP  RH WIND       PRES   REMARKS
DENISON        CLEAR     34  34 100 E5        29.50R WCI  30
ESTHERVILLE    CLOUDY    31  31 100 W10       29.50R WCI  22
LE MARS        CLEAR     30  30 100 NW5       29.54S WCI  25
SHELDON        CLOUDY    32  32 100 W8        29.50S WCI  25
SIOUX CITY     CLEAR     31  29  92 N6        29.54R WCI  25
SPENCER          N/A    N/A N/A N/A MISG      29.51R
STORM LAKE     CLEAR     32  30  93 NW8       29.52R WCI  25
$$

ABBREVIATIONS USED IN REMARKS
   TC - TEMPERATURE IN CELSIUS
  WCI - WIND CHILL INDEX
   HX - HEAT INDEX
  VSB - VISIBILITY




USA.gov is the U.S. government's official web portal to all federal, state and local government web resources and services.